IRIDIUM 34

Last updated on Wed Nov 29 2017 00:19:02 GMT+0000 (Coordinated Universal Time)

1 24969U 97056E 17332.29400753 .00000200 00000-0 64176-4 0 9993 2 24969 86.3984 250.1884 0002069 81.1620 278.9810 14.34221676 56050
UTC large
Height (km)
Speed (km/s)
/
Latitude / Longitude
Inclination (degrees)
Orbital Period (minutes)
Azimuth
Elevation
Range (km)
Doppler Factor

Next 0 passes for location: London (51.5072 / 0.1276)

Sorry there are no passes over London.